• în Republica Moldova
  • Lista ţărilor
  • Pe 7 zile
  • Temperatura apei
  • Hartă satelitară
  • Meteo pe hartă
  • Widget-uri
  • user-avatar
    Intrare

    Meteo pe oră la Ali Bayramli

    Astăzi, 28 Iunie, Miercuri

    Timp Temperatura Precipitaţii Vânt Presiune Umiditate
    00:00 +26°C° 0 mm 1 m/s 756 mmHg 73%
    01:00 +25°C° 0 mm 1 m/s 756 mmHg 75%
    02:00 +25°C° 0 mm 1 m/s 756 mmHg 76%
    03:00 +25°C° 0 mm 1 m/s 756 mmHg 79%
    04:00 +25°C° 0 mm 2 m/s 756 mmHg 76%
    05:00 +26°C° 0 mm 2 m/s 756 mmHg 74%
    06:00 +27°C° 0 mm 2 m/s 756 mmHg 72%
    07:00 +28°C° 0 mm 2 m/s 756 mmHg 64%
    08:00 +30°C° 0 mm 2 m/s 756 mmHg 56%
    09:00 +31°C° 0 mm 2 m/s 756 mmHg 48%
    10:00 +34°C° 0 mm 3 m/s 756 mmHg 43%
    11:00 +35°C° 0 mm 4 m/s 755 mmHg 38%
    12:00 +36°C° 0 mm 4 m/s 755 mmHg 33%
    13:00 +37°C° 0 mm 5 m/s 755 mmHg 31%
    14:00 +37°C° 0 mm 5 m/s 754 mmHg 30%
    15:00 +38°C° 0 mm 6 m/s 754 mmHg 29%
    16:00 +36°C° 0 mm 6 m/s 754 mmHg 30%
    17:00 +35°C° 0 mm 5 m/s 754 mmHg 31%
    18:00 +34°C° 0 mm 5 m/s 753 mmHg 33%
    19:00 +33°C° 0 mm 4 m/s 754 mmHg 35%
    20:00 +31°C° 0 mm 3 m/s 754 mmHg 38%
    21:00 +29°C° 0 mm 2 m/s 754 mmHg 41%
    22:00 +29°C° 0 mm 2 m/s 754 mmHg 42%
    23:00 +28°C° 0 mm 2 m/s 754 mmHg 42%

    Mâine, 29 Iunie, Joi

    Timp Temperatura Precipitaţii Vânt Presiune Umiditate
    00:00 +28°C° 0 mm 1 m/s 754 mmHg 43%
    01:00 +27°C° 0 mm 1 m/s 754 mmHg 43%
    02:00 +27°C° 0 mm 2 m/s 754 mmHg 43%
    03:00 +26°C° 0 mm 2 m/s 754 mmHg 43%
    04:00 +27°C° 0 mm 2 m/s 754 mmHg 42%
    05:00 +28°C° 0 mm 2 m/s 754 mmHg 41%
    06:00 +28°C° 0 mm 3 m/s 754 mmHg 40%
    07:00 +30°C° 0 mm 3 m/s 754 mmHg 35%
    08:00 +33°C° 0 mm 3 m/s 754 mmHg 29%
    09:00 +35°C° 0 mm 3 m/s 754 mmHg 24%
    10:00 +36°C° 0 mm 3 m/s 754 mmHg 22%
    11:00 +38°C° 0 mm 3 m/s 754 mmHg 19%
    12:00 +39°C° 0 mm 3 m/s 754 mmHg 16%
    13:00 +40°C° 0 mm 4 m/s 753 mmHg 16%
    14:00 +41°C° 0 mm 5 m/s 753 mmHg 15%
    15:00 +41°C° 0 mm 6 m/s 753 mmHg 15%
    16:00 +40°C° 0 mm 6 m/s 753 mmHg 16%
    17:00 +39°C° 0 mm 6 m/s 753 mmHg 16%
    18:00 +38°C° 0 mm 6 m/s 753 mmHg 17%
    19:00 +35°C° 0 mm 6 m/s 753 mmHg 19%
    20:00 +33°C° 0 mm 5 m/s 753 mmHg 21%
    21:00 +32°C° 0 mm 5 m/s 753 mmHg 24%
    22:00 +30°C° 0 mm 5 m/s 753 mmHg 26%
    23:00 +29°C° 0 mm 4 m/s 753 mmHg 27%

    Poimâine, 30 Iunie, Vineri

    Timp Temperatura Precipitaţii Vânt Presiune Umiditate
    00:00 +29°C° 0 mm 4 m/s 753 mmHg 29%
    01:00 +28°C° 0 mm 4 m/s 753 mmHg 30%
    02:00 +28°C° 0 mm 4 m/s 753 mmHg 31%
    03:00 +27°C° 0 mm 4 m/s 753 mmHg 31%
    04:00 +28°C° 0 mm 4 m/s 753 mmHg 31%
    05:00 +28°C° 0 mm 4 m/s 753 mmHg 30%
    06:00 +29°C° 0 mm 4 m/s 753 mmHg 29%
    07:00 +32°C° 0 mm 4 m/s 754 mmHg 26%
    08:00 +34°C° 0 mm 5 m/s 754 mmHg 22%
    09:00 +37°C° 0 mm 5 m/s 754 mmHg 18%
    10:00 +39°C° 0 mm 6 m/s 754 mmHg 17%
    11:00 +40°C° 0 mm 6 m/s 754 mmHg 16%
    12:00 +41°C° 0 mm 7 m/s 754 mmHg 16%
    13:00 +41°C° 0 mm 8 m/s 754 mmHg 16%
    14:00 +41°C° 0 mm 8 m/s 754 mmHg 16%
    15:00 +42°C° 0 mm 9 m/s 753 mmHg 16%
    16:00 +40°C° 0 mm 9 m/s 753 mmHg 18%
    17:00 +38°C° 0 mm 9 m/s 754 mmHg 19%
    18:00 +37°C° 0 mm 9 m/s 754 mmHg 20%
    19:00 +35°C° 0 mm 8 m/s 754 mmHg 22%
    20:00 +34°C° 0 mm 8 m/s 755 mmHg 24%
    21:00 +32°C° 0 mm 7 m/s 755 mmHg 25%
    22:00 +32°C° 0 mm 7 m/s 755 mmHg 26%
    23:00 +30°C° 0 mm 7 m/s 755 mmHg 26%

    1 Iulie, Sâmbătă

    Timp Temperatura Precipitaţii Vânt Presiune Umiditate
    00:00 +30°C° 0 mm 7 m/s 755 mmHg 27%
    01:00 +29°C° 0 mm 6 m/s 755 mmHg 27%
    02:00 +29°C° 0 mm 6 m/s 755 mmHg 27%
    03:00 +28°C° 0 mm 6 m/s 755 mmHg 28%
    04:00 +29°C° 0 mm 6 m/s 755 mmHg 27%
    05:00 +29°C° 0 mm 5 m/s 755 mmHg 27%
    06:00 +30°C° 0 mm 5 m/s 756 mmHg 27%
    07:00 +33°C° 0 mm 6 m/s 756 mmHg 24%
    08:00 +35°C° 0 mm 6 m/s 756 mmHg 22%
    09:00 +38°C° 0 mm 7 m/s 756 mmHg 19%
    10:00 +39°C° 0 mm 7 m/s 756 mmHg 18%
    11:00 +40°C° 0 mm 7 m/s 756 mmHg 17%
    12:00 +41°C° 0 mm 8 m/s 756 mmHg 16%
    13:00 +41°C° 0 mm 8 m/s 756 mmHg 16%
    14:00 +42°C° 0 mm 9 m/s 756 mmHg 16%
    15:00 +42°C° 0 mm 9 m/s 755 mmHg 16%
    16:00 +40°C° 0 mm 8 m/s 755 mmHg 17%
    17:00 +39°C° 0 mm 8 m/s 755 mmHg 19%
    18:00 +38°C° 0 mm 7 m/s 755 mmHg 20%
    19:00 +35°C° 0 mm 6 m/s 756 mmHg 23%
    20:00 +34°C° 0 mm 5 m/s 756 mmHg 26%
    21:00 +32°C° 0 mm 4 m/s 756 mmHg 29%
    22:00 +30°C° 0 mm 4 m/s 756 mmHg 32%
    23:00 +29°C° 0 mm 3 m/s 756 mmHg 35%

    2 Iulie, Duminică

    Timp Temperatura Precipitaţii Vânt Presiune Umiditate
    00:00 +28°C° 0 mm 2 m/s 756 mmHg 38%
    01:00 +28°C° 0 mm 2 m/s 756 mmHg 39%
    02:00 +27°C° 0 mm 2 m/s 756 mmHg 40%
    03:00 +27°C° 0 mm 2 m/s 756 mmHg 40%
    04:00 +28°C° 0 mm 2 m/s 756 mmHg 38%
    05:00 +29°C° 0 mm 2 m/s 756 mmHg 35%
    06:00 +30°C° 0 mm 2 m/s 756 mmHg 33%
    07:00 +32°C° 0 mm 2 m/s 756 mmHg 29%
    08:00 +35°C° 0 mm 3 m/s 756 mmHg 25%
    09:00 +37°C° 0 mm 3 m/s 756 mmHg 22%
    10:00 +38°C° 0 mm 3 m/s 755 mmHg 20%
    11:00 +39°C° 0 mm 3 m/s 755 mmHg 19%
    12:00 +41°C° 0 mm 4 m/s 754 mmHg 18%
    13:00 +41°C° 0 mm 4 m/s 754 mmHg 18%
    14:00 +41°C° 0 mm 5 m/s 754 mmHg 18%
    15:00 +42°C° 0 mm 6 m/s 753 mmHg 19%
    16:00 +40°C° 0 mm 6 m/s 753 mmHg 21%
    17:00 +39°C° 0 mm 6 m/s 753 mmHg 24%
    18:00 +37°C° 0 mm 5 m/s 753 mmHg 27%
    19:00 +35°C° 0 mm 4 m/s 753 mmHg 32%
    20:00 +33°C° 0 mm 3 m/s 754 mmHg 37%
    21:00 +30°C° 0 mm 2 m/s 754 mmHg 43%
    22:00 +30°C° 0 mm 2 m/s 754 mmHg 45%
    23:00 +29°C° 0 mm 2 m/s 753 mmHg 47%

    3 Iulie, Luni

    Timp Temperatura Precipitaţii Vânt Presiune Umiditate
    00:00 +29°C° 0 mm 2 m/s 753 mmHg 49%
    01:00 +28°C° 0 mm 2 m/s 753 mmHg 49%
    02:00 +28°C° 0 mm 2 m/s 753 mmHg 50%
    03:00 +28°C° 0 mm 2 m/s 752 mmHg 50%
    04:00 +28°C° 0 mm 1 m/s 752 mmHg 49%
    05:00 +29°C° 0 mm 1 m/s 752 mmHg 47%
    06:00 +30°C° 0 mm 1 m/s 753 mmHg 46%
    07:00 +31°C° 0 mm 1 m/s 752 mmHg 41%
    08:00 +33°C° 0 mm 1 m/s 752 mmHg 36%
    09:00 +35°C° 0 mm 1 m/s 752 mmHg 31%
    10:00 +37°C° 0 mm 2 m/s 752 mmHg 28%
    11:00 +39°C° 0 mm 3 m/s 751 mmHg 25%
    12:00 +40°C° 0 mm 3 m/s 751 mmHg 22%
    13:00 +41°C° 0 mm 4 m/s 750 mmHg 22%
    14:00 +42°C° 0 mm 4 m/s 750 mmHg 21%
    15:00 +42°C° 0 mm 5 m/s 750 mmHg 21%
    16:00 +41°C° 0 mm 5 m/s 749 mmHg 23%
    17:00 +40°C° 0 mm 5 m/s 749 mmHg 24%
    18:00 +37°C° 0 mm 5 m/s 749 mmHg 26%
    19:00 +36°C° 0 mm 4 m/s 749 mmHg 30%
    20:00 +34°C° 0 mm 3 m/s 749 mmHg 34%
    21:00 +31°C° 0 mm 2 m/s 750 mmHg 39%
    22:00 +30°C° 0 mm 2 m/s 750 mmHg 40%
    23:00 +30°C° 0 mm 1 m/s 749 mmHg 42%
    Arată mai mult